GW0828 Weather Reports


Display with metric or nautical units.
time (UTC)temp
F
wind
direction
speed
MPH
gust
MPH
rain 1hr
in
rain 24hr
in
rain mn
in
humidity
%
barometer
mb
20260502163058 61 223 2.0 5.0 0.00 0.00 0.00 28 1021.6
20260502162537 61 174 2.0 5.0 0.00 0.00 0.00 28 1021.6
20260502162038 60 180 2.0 5.0 0.00 0.00 0.00 32 1021.6
20260502161549 60 92 1.0 5.0 0.00 0.00 0.00 30 1021.7
20260502161038 59 112 1.0 5.0 0.00 0.00 0.00 29 1021.8
20260502160537 59 96 1.0 6.0 0.00 0.00 0.00 33 1021.8
20260502152039 55 229 2.0 5.0 0.00 0.00 0.00 36 1022.0
20260502151611 54 197 2.0 5.0 0.00 0.00 0.00 37 1022.0
20260502151038 53 194 2.0 5.0 0.00 0.00 0.00 39 1022.1
20260502150538 53 216 1.0 4.0 0.00 0.00 0.00 39 1022.2
20260502130537 39 0 0.0 2.0 0.00 0.00 0.00 56 1022.3
20260502123537 34 0 0.0 1.0 0.00 0.00 0.00 66 1022.1
20260502123049 34 0 0.0 1.0 0.00 0.00 0.00 67 1021.9
20260502122534 33 0 0.0 1.0 0.00 0.00 0.00 67 1022.0
20260502122038 33 0 0.0 0.0 0.00 0.00 0.00 67 1021.8
20260502121553 33 0 0.0 0.0 0.00 0.00 0.00 67 1021.8
20260502121038 33 0 0.0 0.0 0.00 0.00 0.00 68 1021.8
20260502120538 33 0 0.0 0.0 0.00 0.00 0.00 70 1021.9
20260502115537 34 0 0.0 0.0 0.00 0.00 0.00 70 1021.9
20260502115037 34 0 0.0 0.0 0.00 0.00 0.00 68 1021.9
20260502114547 34 0 0.0 0.0 0.00 0.00 0.00 67 1022.0
20260502114037 34 0 0.0 1.0 0.00 0.00 0.00 68 1022.0
20260502113537 34 0 0.0 1.0 0.00 0.00 0.00 69 1021.9
20260502113050 34 0 0.0 1.0 0.00 0.00 0.00 71 1022.0
20260502112536 34 0 0.0 1.0 0.00 0.00 0.00 71 1022.0
20260502112037 34 0 0.0 1.0 0.00 0.00 0.00 69 1022.1
20260502111546 34 0 0.0 0.0 0.00 0.00 0.00 68 1022.1
20260502111038 34 0 0.0 0.0 0.00 0.00 0.00 65 1022.1
20260502110537 34 0 0.0 0.0 0.00 0.00 0.00 64 1022.1
20260502110048 35 0 0.0 0.0 0.00 0.00 0.00 64 1022.1
20260502105538 35 0 0.0 0.0 0.00 0.00 0.00 64 1022.1
20260502105038 35 0 0.0 0.0 0.00 0.00 0.00 63 1022.1
20260502104552 35 0 0.0 0.0 0.00 0.00 0.00 64 1022.0
20260502104037 35 0 0.0 0.0 0.00 0.00 0.00 65 1022.0
20260502103537 36 0 0.0 0.0 0.00 0.00 0.00 64 1021.9
20260502103047 36 0 0.0 0.0 0.00 0.00 0.00 63 1021.8
20260502102537 36 0 0.0 0.0 0.00 0.00 0.00 62 1021.8
20260502102038 36 0 0.0 0.0 0.00 0.00 0.00 63 1021.9
20260502101603 36 0 0.0 0.0 0.00 0.00 0.00 62 1021.9
20260502101036 37 0 0.0 0.0 0.00 0.00 0.00 62 1021.9
20260502100536 37 0 0.0 0.0 0.00 0.00 0.00 61 1021.8
20260502091041 39 0 0.0 1.0 0.00 0.00 0.00 52 1021.6
20260502090539 39 0 0.0 3.0 0.00 0.00 0.00 51 1021.6
20260502071037 41 0 0.0 0.0 0.00 0.00 0.00 57 1021.8
20260502070537 41 0 0.0 0.0 0.00 0.00 0.00 56 1021.7
20260502065537 41 0 0.0 2.0 0.00 0.00 0.00 54 1021.7
20260502065034 42 0 0.0 2.0 0.00 0.00 0.00 54 1021.6
20260502064552 42 0 0.0 2.0 0.00 0.00 0.00 53 1021.6
20260502064036 43 0 0.0 2.0 0.00 0.00 0.00 51 1021.7
20260502063533 43 352 0.0 2.0 0.00 0.00 0.00 49 1021.6
20260502063047 44 0 0.0 2.0 0.00 0.00 0.00 47 1021.6
20260502062536 44 0 0.0 3.0 0.00 0.00 0.00 47 1021.7
20260502062038 44 347 0.0 4.0 0.00 0.00 0.00 45 1021.6
20260502061548 44 352 1.0 4.0 0.00 0.00 0.00 44 1021.6
20260502061037 45 356 1.0 5.0 0.00 0.00 0.00 45 1021.5
20260502060537 45 356 2.0 5.0 0.00 0.00 0.00 46 1021.6
20260502060049 45 356 2.0 4.0 0.00 0.00 0.00 47 1021.6
20260502055539 45 356 1.0 3.0 0.00 0.00 0.00 47 1021.6
20260502055037 45 356 1.0 3.0 0.00 0.00 0.00 48 1021.6
20260502054559 45 352 1.0 3.0 0.00 0.00 0.00 48 1021.6
20260502054037 45 356 1.0 3.0 0.00 0.00 0.00 48 1021.5
20260502053537 45 0 1.0 3.0 0.00 0.00 0.00 49 1021.6
20260502053045 46 347 0.0 3.0 0.00 0.00 0.00 48 1021.6
20260502052536 46 352 1.0 3.0 0.00 0.00 0.00 48 1021.6
20260502052039 46 352 1.0 3.0 0.00 0.00 0.00 46 1021.4
20260502051549 46 0 1.0 3.0 0.00 0.00 0.00 44 1021.4
20260502051038 46 0 0.0 3.0 0.00 0.00 0.00 41 1021.4
20260502050537 46 6 0.0 3.0 0.00 0.00 0.00 41 1021.4
20260502050049 47 0 0.0 2.0 0.00 0.00 0.00 40 1021.5
20260502045537 47 5 0.0 2.0 0.00 0.00 0.00 40 1021.4
20260502045037 47 0 0.0 2.0 0.00 0.00 0.00 40 1021.4
20260502044547 47 0 0.0 3.0 0.00 0.00 0.00 41 1021.4
20260502044034 47 0 1.0 3.0 0.00 0.00 0.00 41 1021.3
20260502043536 47 6 0.0 3.0 0.00 0.00 0.00 40 1021.4
20260502043109 47 0 0.0 2.0 0.00 0.00 0.00 35 1021.4
20260502042533 48 6 0.0 2.0 0.00 0.00 0.00 35 1021.3
20260502042036 48 6 1.0 4.0 0.00 0.00 0.00 36 1021.2
20260502041612 48 6 1.0 4.0 0.00 0.00 0.00 36 1021.1
20260502041036 49 6 1.0 3.0 0.00 0.00 0.00 39 1021.3
20260502040538 50 0 0.0 3.0 0.00 0.00 0.00 39 1021.1
20260502040056 50 356 1.0 3.0 0.00 0.00 0.00 33 1021.0
20260502035538 51 356 1.0 4.0 0.00 0.00 0.00 31 1020.9
20260502035040 51 356 2.0 4.0 0.00 0.00 0.00 30 1020.9
20260502034550 52 357 1.0 8.0 0.00 0.00 0.00 32 1020.8
20260502034037 52 358 3.0 8.0 0.00 0.00 0.00 32 1020.8
20260502033536 52 357 2.0 7.0 0.00 0.00 0.00 30 1020.7
20260502033043 52 358 4.0 7.0 0.00 0.00 0.00 34 1020.6
20260502032537 52 358 3.0 5.0 0.00 0.00 0.00 32 1020.6
20260502032033 52 357 2.0 7.0 0.00 0.00 0.00 38 1020.4
20260502031552 52 358 3.0 7.0 0.00 0.00 0.00 33 1020.3
20260502031035 53 358 3.0 7.0 0.00 0.00 0.00 30 1020.3
20260502030536 53 358 4.0 8.0 0.00 0.00 0.00 30 1020.3
20260502030109 53 356 4.0 8.0 0.00 0.00 0.00 29 1020.3
20260502025536 53 358 4.0 8.0 0.00 0.00 0.00 30 1020.2
20260502025037 53 358 3.0 7.0 0.00 0.00 0.00 28 1020.1
20260502024557 53 356 3.0 8.0 0.00 0.00 0.00 29 1020.0
20260502024037 54 357 3.0 8.0 0.00 0.00 0.00 29 1019.9
20260502023537 54 358 3.0 7.0 0.00 0.00 0.00 42 1019.9
20260502023112 55 356 1.0 3.0 0.00 0.00 0.00 28 1019.8
20260502022538 55 0 1.0 3.0 0.00 0.00 0.00 28 1019.6
20260502022034 56 356 1.0 5.0 0.00 0.00 0.00 27 1019.6
20260502021546 56 356 1.0 6.0 0.00 0.00 0.00 25 1019.6
20260502021035 56 41 2.0 6.0 0.00 0.00 0.00 24 1019.4
20260502020533 56 40 3.0 6.0 0.00 0.00 0.00 25 1019.3
20260502020046 57 27 3.0 8.0 0.00 0.00 0.00 25 1019.3
20260502015536 57 35 4.0 9.0 0.00 0.00 0.00 25 1019.3
20260502015036 57 35 4.0 9.0 0.00 0.00 0.00 24 1019.2
20260502014553 57 27 3.0 8.0 0.00 0.00 0.00 24 1019.1
20260502014036 58 36 3.0 7.0 0.00 0.00 0.00 26 1018.9
20260502013536 58 17 4.0 8.0 0.00 0.00 0.00 26 1019.0
20260502013055 58 37 4.0 10.0 0.00 0.00 0.00 25 1018.9
20260502012538 58 20 6.0 11.0 0.00 0.00 0.00 24 1018.8
20260502012037 58 21 5.0 13.0 0.00 0.00 0.00 24 1018.7
20260502011603 59 24 8.0 13.0 0.00 0.00 0.00 24 1018.7
20260502011037 59 8 6.0 12.0 0.00 0.00 0.00 23 1018.5
20260502010536 59 40 8.0 12.0 0.00 0.00 0.00 22 1018.5
20260502010045 60 69 5.0 14.0 0.00 0.00 0.00 23 1018.4
20260502005537 60 38 8.0 16.0 0.00 0.00 0.00 23 1018.4
20260502005036 60 15 9.0 18.0 0.00 0.00 0.00 22 1018.4
20260502004546 61 69 9.0 18.0 0.00 0.00 0.00 22 1018.3
20260502004035 61 72 8.0 14.0 0.00 0.00 0.00 23 1018.3
20260502003538 61 16 4.0 14.0 0.00 0.00 0.00 21 1018.4
20260502003049 61 33 5.0 14.0 0.00 0.00 0.00 23 1018.4
20260502002537 61 356 4.0 17.0 0.00 0.00 0.00 22 1018.5
20260502002038 61 3 9.0 17.0 0.00 0.00 0.00 23 1018.4
20260502001557 61 36 8.0 16.0 0.00 0.00 0.00 22 1018.4
20260502001040 61 42 8.0 16.0 0.00 0.00 0.00 22 1018.4
20260502000533 61 27 6.0 14.0 0.00 0.00 0.00 22 1018.4
20260502000058 61 39 2.0 13.0 0.00 0.00 0.00 22 1018.3
20260501235536 61 63 5.0 15.0 0.00 0.00 0.00 22 1018.4
20260501235036 61 356 7.0 15.0 0.00 0.00 0.00 22 1018.3
20260501234549 62 347 3.0 11.0 0.00 0.00 0.00 22 1018.2
20260501234036 62 356 4.0 13.0 0.00 0.00 0.00 20 1018.2
20260501233536 62 28 6.0 13.0 0.00 0.00 0.00 20 1018.2
20260501233101 62 34 3.0 11.0 0.00 0.00 0.00 20 1018.2
20260501232535 62 303 3.0 11.0 0.00 0.00 0.00 20 1018.2
20260501232038 62 14 4.0 13.0 0.00 0.00 0.00 21 1018.1
20260501231620 62 21 4.0 13.0 0.00 0.00 0.00 19 1018.1
20260501231038 63 52 4.0 13.0 0.00 0.00 0.00 23 1018.1
20260501230539 63 318 4.0 13.0 0.00 0.00 0.00 20 1018.1
20260501230117 63 30 4.0 11.0 0.00 0.00 0.00 21 1018.1
20260501225539 62 3 1.0 10.0 0.00 0.00 0.00 22 1018.0
20260501225038 62 18 3.0 10.0 0.00 0.00 0.00 20 1018.1
20260501224557 62 307 1.0 9.0 0.00 0.00 0.00 22 1018.1
20260501224038 62 37 1.0 13.0 0.00 0.00 0.00 22 1018.1
20260501223538 62 333 5.0 13.0 0.00 0.00 0.00 19 1018.1
20260501223053 63 21 3.0 11.0 0.00 0.00 0.00 20 1018.2
20260501222538 63 285 2.0 10.0 0.00 0.00 0.00 21 1018.3
20260501222041 63 279 4.0 10.0 0.00 0.00 0.00 22 1018.2
20260501221559 62 306 3.0 12.0 0.00 0.00 0.00 23 1018.3
20260501221038 63 297 2.0 12.0 0.00 0.00 0.00 18 1018.3
20260501220539 65 347 4.0 10.0 0.00 0.00 0.00 21 1018.3
20260501220104 64 228 3.0 10.0 0.00 0.00 0.00 23 1018.4
20260501215539 62 13 3.0 9.0 0.00 0.00 0.00 23 1018.4
20260501215041 62 319 2.0 13.0 0.00 0.00 0.00 23 1018.5
20260501214553 62 339 5.0 15.0 0.00 0.00 0.00 22 1018.6
20260501214038 63 312 4.0 15.0 0.00 0.00 0.00 21 1018.4
20260501213538 64 294 5.0 15.0 0.00 0.00 0.00 20 1018.6
20260501213053 65 320 3.0 14.0 0.00 0.00 0.00 20 1018.6
20260501212538 65 291 3.0 14.0 0.00 0.00 0.00 20 1018.6
20260501212038 65 252 5.0 14.0 0.00 0.00 0.00 18 1018.6
20260501211552 64 291 6.0 14.0 0.00 0.00 0.00 19 1018.6
20260501211037 64 279 3.0 8.0 0.00 0.00 0.00 19 1018.7
20260501210538 64 54 3.0 12.0 0.00 0.00 0.00 20 1018.9
20260501210050 63 315 3.0 12.0 0.00 0.00 0.00 22 1018.9
20260501205541 63 259 1.0 14.0 0.00 0.00 0.00 22 1019.1
20260501205037 64 288 3.0 14.0 0.00 0.00 0.00 21 1019.2
20260501204553 64 297 2.0 13.0 0.00 0.00 0.00 21 1019.1
20260501204041 64 274 4.0 13.0 0.00 0.00 0.00 23 1019.2
20260501203539 63 261 3.0 13.0 0.00 0.00 0.00 21 1019.3
20260501203053 63 264 4.0 13.0 0.00 0.00 0.00 21 1019.2
20260501202538 62 73 5.0 13.0 0.00 0.00 0.00 20 1019.2
20260501202038 62 280 2.0 9.0 0.00 0.00 0.00 22 1019.3
20260501201556 62 89 2.0 7.0 0.00 0.00 0.00 19 1019.3
20260501201038 62 337 3.0 10.0 0.00 0.00 0.00 23 1019.3
20260501200538 63 277 3.0 10.0 0.00 0.00 0.00 21 1019.3
20260501200047 62 0 4.0 10.0 0.00 0.00 0.00 20 1019.4
20260501195538 62 303 4.0 11.0 0.00 0.00 0.00 23 1019.4
20260501195038 62 34 3.0 11.0 0.00 0.00 0.00 22 1019.5
20260501194545 62 80 4.0 9.0 0.00 0.00 0.00 22 1019.4
20260501194038 62 292 4.0 9.0 0.00 0.00 0.00 21 1019.5
20260501193537 61 191 3.0 9.0 0.00 0.00 0.00 23 1019.5
20260501193054 61 287 2.0 11.0 0.00 0.00 0.00 21 1019.7
20260501192537 62 339 4.0 13.0 0.00 0.00 0.00 21 1019.7
20260501192038 61 283 3.0 13.0 0.00 0.00 0.00 22 1019.7
20260501191553 60 296 4.0 9.0 0.00 0.00 0.00 20 1019.6
20260501191041 60 55 3.0 9.0 0.00 0.00 0.00 24 1019.7
20260501190539 60 36 2.0 10.0 0.00 0.00 0.00 22 1019.7
20260501190050 60 2 4.0 10.0 0.00 0.00 0.00 23 1019.8
20260501185538 61 347 4.0 11.0 0.00 0.00 0.00 19 1019.8
20260501185038 62 288 4.0 11.0 0.00 0.00 0.00 22 1019.8
20260501184547 60 323 5.0 11.0 0.00 0.00 0.00 25 1019.8
20260501184038 59 21 2.0 9.0 0.00 0.00 0.00 21 1019.8
20260501183537 59 352 2.0 8.0 0.00 0.00 0.00 22 1019.9
20260501183054 60 17 2.0 8.0 0.00 0.00 0.00 25 1019.9
20260501182538 59 356 2.0 8.0 0.00 0.00 0.00 26 1020.0
20260501182038 59 19 1.0 11.0 0.00 0.00 0.00 32 1020.1
20260501181556 59 0 3.0 11.0 0.00 0.00 0.00 24 1020.1
20260501181037 58 320 2.0 8.0 0.00 0.00 0.00 28 1020.1
20260501180537 57 123 3.0 8.0 0.00 0.00 0.00 23 1020.1
20260501180054 58 189 3.0 8.0 0.00 0.00 0.00 25 1020.3
20260501175539 58 236 3.0 7.0 0.00 0.00 0.00 23 1020.4
20260501175038 57 116 3.0 8.0 0.00 0.00 0.00 29 1020.4
20260501174553 58 96 1.0 8.0 0.00 0.00 0.00 22 1020.6
20260501174038 58 339 2.0 12.0 0.00 0.00 0.00 25 1020.6
20260501173538 57 278 4.0 12.0 0.00 0.00 0.00 25 1020.6
20260501173104 57 47 5.0 11.0 0.00 0.00 0.00 26 1020.6
20260501172538 58 13 2.0 8.0 0.00 0.00 0.00 26 1020.7
20260501172038 57 250 3.0 7.0 0.00 0.00 0.00 22 1020.7
20260501171603 57 336 1.0 10.0 0.00 0.00 0.00 24 1020.7
20260501171037 57 27 3.0 10.0 0.00 0.00 0.00 25 1020.8
20260501170537 58 101 4.0 9.0 0.00 0.00 0.00 23 1020.7
20260501170055 57 323 2.0 12.0 0.00 0.00 0.00 24 1020.8
20260501165538 58 339 3.0 12.0 0.00 0.00 0.00 24 1020.8
20260501165131 58 308 2.0 11.0 0.00 0.00 0.00 29 1020.8
20260501164617 57 339 1.0 7.0 0.00 0.00 0.00 31 1020.7
20260501164038 57 108 1.0 6.0 0.00 0.00 0.00 28 1020.8
20260501163538 56 326 1.0 8.0 0.00 0.00 0.00 34 1020.8